Weather History for KMUI - May, 2013

Change the Weather History Date:

Wednesday, May 22, 2013

  Actual Average Record
Temperature  
Mean Temperature 76 °F -  
Max Temperature 89 °F 70 °F 89 °F (2013)
Min Temperature 62 °F 55 °F 44 °F (2008)
Cooling Degree Days 10    
Growing Degree Days 26 (Base 50)    
Moisture  
Dew Point 67 °F    
Average Humidity 94    
Maximum Humidity 100    
Minimum Humidity 40    
Precipitation  
Precipitation 0.55 in - - ()
Sea Level Pressure  
Sea Level Pressure 29.88 in    
Wind  
Wind Speed 2 mph (SW)    
Max Wind Speed 23 mph    
Max Gust Speed 30 mph    
Visibility 3 miles    
Events Fog , Rain , Thunderstorm    
Averages and records for this station are not official NWS values.
T = Trace of Precipitation, MM = Missing Value Source: NWS Daily Summary

Daily Weather History Graph

Daily Weather History Graph

Search for Another Location

Airport or City:

Trip Planner

Search our weather history database for the weather conditions in past years. The results will help you decide how hot, cold, wet, or windy it might be!

Date:

Astronomy

May. 22, 2013 Rise Set
Actual Time 5:43 AM EDT 8:22 PM EDT
Civil Twilight 5:12 AM EDT 8:54 PM EDT
Nautical Twilight 4:32 AM EDT 9:33 PM EDT
Astronomical Twilight 3:48 AM EDT 10:18 PM EDT
Moon 5:41 PM EDT (5/22) 3:47 AM EDT (5/22)
Length of Visible Light 15h 41m
Length of Day
14h 38m
Waxing Gibbous, 91% of the Moon is Illuminated
May 22
Waxing Gibbous
May 25
Full
May 31
Last Quarter
Jun 8
New
Jun 16
First Quarter

Hourly Weather History & Observations

Time (EDT) Temp. Heat Index Dew Point Humidity Pressure Visibility Wind Dir Wind Speed Gust Speed Precip Events Conditions
12:26 AM 68.0 °F - 68.0 °F 100% 29.88 in 2.5 mi Calm Calm - N/A   Clear
12:28 AM 68.0 °F - 68.0 °F 100% 29.88 in 2.5 mi Calm Calm - N/A Rain Light Rain
12:30 AM 68.0 °F - 68.0 °F 100% 29.88 in 1.8 mi Calm Calm - N/A Rain Light Rain
12:32 AM 68.0 °F - 68.0 °F 100% 29.88 in 1.5 mi Calm Calm - N/A Rain Light Rain
12:34 AM 68.0 °F - 68.0 °F 100% 29.88 in 1.8 mi Calm Calm - N/A   Clear
12:36 AM 68.0 °F - 68.0 °F 100% 29.88 in 2.0 mi Calm Calm - N/A Rain Light Rain
12:38 AM 68.0 °F - 68.0 °F 100% 29.88 in 2.0 mi Calm Calm - N/A   Clear
12:40 AM 68.0 °F - 68.0 °F 100% 29.88 in 3.0 mi Calm Calm - N/A   Clear
12:54 AM 68.0 °F - 68.0 °F 100% 29.88 in 2.5 mi Calm Calm - N/A   Clear
12:56 AM 68.0 °F - 68.0 °F 100% 29.88 in 1.5 mi Calm Calm - N/A   Clear
12:58 AM 68.0 °F - 68.0 °F 100% 29.88 in 1.5 mi Calm Calm - 0.00 in   Clear
1:06 AM 68.0 °F - 68.0 °F 100% 29.88 in 1.8 mi Calm Calm - N/A   Clear
1:08 AM 68.0 °F - 68.0 °F 100% 29.88 in 1.8 mi Calm Calm - N/A   Clear
1:10 AM 66.2 °F - 66.2 °F 100% 29.88 in 1.5 mi Calm Calm - N/A   Clear
1:12 AM 66.2 °F - 66.2 °F 100% 29.88 in 1.2 mi Calm Calm - N/A   Clear
1:14 AM 66.2 °F - 66.2 °F 100% 29.88 in 1.0 mi Calm Calm - N/A   Clear
1:18 AM 68.0 °F - 68.0 °F 100% 29.88 in 1.2 mi Calm Calm - N/A   Clear
1:20 AM 68.0 °F - 68.0 °F 100% 29.88 in 1.2 mi Calm Calm - N/A   Clear
1:24 AM 68.0 °F - 68.0 °F 100% 29.88 in 1.5 mi Calm Calm - N/A   Clear
1:28 AM 68.0 °F - 68.0 °F 100% 29.88 in 1.8 mi Calm Calm - N/A   Clear
1:30 AM 68.0 °F - 68.0 °F 100% 29.88 in 1.5 mi Calm Calm - N/A   Clear
1:32 AM 68.0 °F - 68.0 °F 100% 29.87 in 1.2 mi Calm Calm - N/A   Clear
1:34 AM 66.2 °F - 66.2 °F 100% 29.87 in 1.0 mi Calm Calm - N/A   Clear
1:42 AM 66.2 °F - 66.2 °F 100% 29.87 in 1.2 mi Calm Calm - N/A   Clear
1:44 AM 66.2 °F - 66.2 °F 100% 29.87 in 1.2 mi Calm Calm - N/A   Clear
1:50 AM 66.2 °F - 66.2 °F 100% 29.87 in 1.5 mi Calm Calm - N/A   Clear
1:58 AM 66.6 °F - 66.6 °F 100% 29.87 in 1.5 mi Calm Calm - N/A   Clear
2:00 AM 68.0 °F - 68.0 °F 100% 29.87 in 1.8 mi Calm Calm - N/A   Clear
2:01 AM 68.0 °F - 68.0 °F 100% 29.87 in 1.8 mi Calm Calm - N/A Rain Light Rain
2:05 AM 66.2 °F - 66.2 °F 100% 29.87 in 1.5 mi Calm Calm - N/A Rain Light Rain
2:09 AM 66.2 °F - 66.2 °F 100% 29.87 in 1.2 mi Calm Calm - N/A Rain Light Rain
2:10 AM 66.2 °F - 66.2 °F 100% 29.87 in 1.2 mi Calm Calm - N/A   Clear
2:12 AM 66.2 °F - 66.2 °F 100% 29.87 in 1.5 mi Calm Calm - N/A   Clear
2:18 AM 66.2 °F - 66.2 °F 100% 29.86 in 1.5 mi Calm Calm - N/A   Clear
2:20 AM 66.2 °F - 66.2 °F 100% 29.86 in 1.2 mi Calm Calm - N/A   Clear
2:22 AM 66.2 °F - 66.2 °F 100% 29.86 in 1.0 mi Calm Calm - N/A   Clear
2:24 AM 66.2 °F - 66.2 °F 100% 29.86 in 0.8 mi Calm Calm - N/A   Clear
2:28 AM 66.2 °F - 66.2 °F 100% 29.86 in 0.5 mi Calm Calm - N/A Fog Fog
2:56 AM 66.2 °F - 66.2 °F 100% 29.86 in 0.8 mi Calm Calm - N/A   Clear
2:58 AM 66.2 °F - 66.2 °F 100% 29.86 in 0.8 mi Calm Calm - 0.00 in   Clear
3:02 AM 66.2 °F - 66.2 °F 100% 29.86 in 0.5 mi Calm Calm - N/A Fog Fog
3:12 AM 66.2 °F - 66.2 °F 100% 29.86 in 0.8 mi Calm Calm - N/A   Clear
3:14 AM 66.2 °F - 66.2 °F 100% 29.86 in 1.2 mi Calm Calm - N/A   Clear
3:16 AM 66.2 °F - 66.2 °F 100% 29.86 in 2.0 mi Calm Calm - N/A   Clear
3:18 AM 66.2 °F - 66.2 °F 100% 29.86 in 1.5 mi Calm Calm - N/A   Clear
3:20 AM 66.2 °F - 66.2 °F 100% 29.86 in 1.0 mi Calm Calm - N/A   Clear
3:22 AM 66.2 °F - 66.2 °F 100% 29.86 in 0.5 mi Calm Calm - N/A Fog Fog
3:26 AM 66.2 °F - 66.2 °F 100% 29.86 in 0.2 mi Calm Calm - N/A Fog Fog
3:40 AM 64.4 °F - 64.4 °F 100% 29.86 in 0.2 mi Calm Calm - N/A Fog Fog
3:50 AM 64.4 °F - 64.4 °F 100% 29.86 in 0.2 mi Calm Calm - N/A Fog Fog
3:58 AM 64.6 °F - 64.6 °F 100% 29.86 in 0.2 mi Calm Calm - N/A Fog Fog
4:14 AM 66.2 °F - 66.2 °F 100% 29.86 in 0.5 mi Calm Calm - N/A Fog Fog
4:24 AM 64.4 °F - 64.4 °F 100% 29.86 in 0.2 mi Calm Calm - N/A Fog Fog
4:45 AM 64.4 °F - 64.4 °F 100% 29.86 in 0.2 mi Calm Calm - N/A Fog Fog
4:58 AM 64.0 °F - 64.0 °F 100% 29.86 in 0.2 mi Calm Calm - N/A Fog Fog
5:16 AM 64.4 °F - 64.4 °F 100% 29.86 in 0.2 mi Calm Calm - N/A Fog Fog
5:41 AM 64.4 °F - 64.4 °F 100% 29.87 in 0.2 mi Calm Calm - N/A Fog Fog
5:58 AM 62.6 °F - 62.6 °F 100% 29.87 in 0.2 mi Calm Calm - N/A Fog Fog
6:58 AM 64.6 °F - 64.6 °F 100% 29.88 in 0.2 mi Calm Calm - N/A Fog Fog
7:12 AM 66.2 °F - 66.2 °F 100% 29.89 in 0.5 mi Calm Calm - N/A Fog Fog
7:16 AM 66.2 °F - 66.2 °F 100% 29.89 in 0.8 mi Calm Calm - N/A   Mist
7:18 AM 66.2 °F - 66.2 °F 100% 29.89 in 1.0 mi Calm Calm - N/A   Mist
7:20 AM 66.2 °F - 66.2 °F 100% 29.89 in 1.2 mi Calm Calm - N/A   Overcast
7:22 AM 66.2 °F - 66.2 °F 100% 29.89 in 1.2 mi Calm Calm - N/A   Overcast
7:24 AM 66.2 °F - 66.2 °F 100% 29.89 in 1.0 mi NE 1.2 mph - N/A   Mist
7:28 AM 66.2 °F - 66.2 °F 100% 29.90 in 1.0 mi Calm Calm - N/A   Mist
7:34 AM 66.2 °F - 66.2 °F 100% 29.90 in 1.2 mi Calm Calm - N/A   Overcast
7:36 AM 66.2 °F - 66.2 °F 100% 29.90 in 1.5 mi Calm Calm - N/A   Overcast
7:42 AM 68.0 °F - 68.0 °F 100% 29.90 in 1.8 mi Calm Calm - N/A   Overcast
7:46 AM 68.0 °F - 68.0 °F 100% 29.90 in 2.0 mi Calm Calm - N/A   Overcast
7:58 AM 67.6 °F - 67.6 °F 100% 29.90 in 2.0 mi Calm Calm - N/A   Overcast
8:11 AM 68.0 °F - 68.0 °F 100% 29.91 in 2.5 mi Calm Calm - N/A   Light Drizzle
8:21 AM 68.0 °F - 68.0 °F 100% 29.91 in 2.5 mi Calm Calm - N/A Rain Light Rain
8:23 AM 69.8 °F - 69.8 °F 100% 29.91 in 3.0 mi Calm Calm - N/A Rain Light Rain
8:29 AM 69.8 °F - 69.8 °F 100% 29.91 in 3.0 mi Calm Calm - N/A Rain Light Rain
8:35 AM 69.8 °F - 69.8 °F 100% 29.91 in 3.0 mi Calm Calm - N/A Rain Light Rain
8:58 AM 70.3 °F - 70.3 °F 100% 29.91 in 4.0 mi WSW 2.3 mph - N/A   Overcast
9:09 AM 69.8 °F - 69.8 °F 100% 29.92 in 4.0 mi SSW 3.5 mph - N/A   Overcast
9:58 AM 72.1 °F - 72.1 °F 100% 29.91 in 6.0 mi SW 2.3 mph - 0.00 in   Mostly Cloudy
10:02 AM 73.4 °F - 73.4 °F 100% 29.91 in 7.0 mi Calm Calm - N/A   Scattered Clouds
10:58 AM 79.5 °F - 75.6 °F 88% 29.91 in 10.0 mi SW 8.1 mph - N/A   Clear
11:58 AM 82.2 °F 86.2 °F 70.2 °F 67% 29.90 in 10.0 mi South 8.1 mph - N/A   Scattered Clouds
12:58 PM 83.8 °F 86.7 °F 67.8 °F 58% 29.88 in 10.0 mi SSE 12.7 mph - N/A   Partly Cloudy
1:58 PM 84.7 °F 86.8 °F 65.7 °F 53% 29.87 in 10.0 mi South 10.4 mph - N/A   Clear
2:58 PM 87.1 °F 88.0 °F 63.3 °F 45% 29.85 in 10.0 mi SSE 6.9 mph - N/A   Clear
3:58 PM 88.9 °F 89.7 °F 62.8 °F 42% 29.83 in 10.0 mi South 12.7 mph - N/A   Clear
4:58 PM 89.2 °F 89.6 °F 62.2 °F 40% 29.81 in 10.0 mi SW 11.5 mph - N/A   Clear
5:58 PM 88.2 °F 88.4 °F 62.1 °F 41% 29.80 in 10.0 mi SSW 8.1 mph - N/A   Clear
6:58 PM 85.8 °F 86.6 °F 62.8 °F 46% 29.81 in 10.0 mi SSW 11.5 mph - N/A   Scattered Clouds
7:58 PM 80.4 °F 84.2 °F 71.6 °F 74% 29.84 in 10.0 mi South 9.2 mph - N/A   Clear
8:24 PM 78.8 °F - 68.0 °F 69% 29.86 in 10.0 mi West 20.7 mph 26.5 mph N/A Thunderstorm Partly Cloudy
8:27 PM 80.6 °F 81.8 °F 62.6 °F 54% 29.86 in 10.0 mi WSW 21.9 mph 27.6 mph N/A Thunderstorm Thunderstorm
8:33 PM 78.8 °F - 62.6 °F 57% 29.88 in 8.0 mi WSW 23.0 mph 29.9 mph N/A Rain , Thunderstorm Light Thunderstorms and Rain
8:35 PM 77.0 °F - 64.4 °F 65% 29.88 in 2.5 mi West 23.0 mph 29.9 mph N/A Rain , Thunderstorm Light Thunderstorms and Rain
8:37 PM 75.2 °F - 66.2 °F 73% 29.88 in 1.5 mi West 16.1 mph 29.9 mph N/A Rain , Thunderstorm Heavy Thunderstorms and Rain
8:38 PM 75.2 °F - 66.2 °F 73% 29.88 in 1.5 mi WNW 12.7 mph 29.9 mph N/A Rain , Thunderstorm Heavy Thunderstorms and Rain
8:40 PM 73.4 °F - 68.0 °F 83% 29.88 in 1.2 mi West 10.4 mph 29.9 mph N/A Rain , Thunderstorm Heavy Thunderstorms and Rain
8:44 PM 71.6 °F - 69.8 °F 94% 29.88 in 1.2 mi West 11.5 mph 29.9 mph N/A Rain , Thunderstorm Heavy Thunderstorms and Rain
8:46 PM 71.6 °F - 69.8 °F 94% 29.89 in 2.0 mi West 11.5 mph 19.6 mph N/A Rain , Thunderstorm Light Thunderstorms and Rain
8:48 PM 69.8 °F - 69.8 °F 100% 29.89 in 4.0 mi WSW 9.2 mph 19.6 mph N/A Rain , Thunderstorm Light Thunderstorms and Rain
8:55 PM 69.8 °F - 69.8 °F 100% 29.90 in 5.0 mi SSW 10.4 mph - N/A Rain , Thunderstorm Light Rain
8:58 PM 69.8 °F - 69.8 °F 100% 29.90 in 5.0 mi SSW 11.5 mph 17.3 mph 0.33 in Rain , Thunderstorm Light Rain
9:10 PM 69.8 °F - 69.8 °F 100% 29.90 in 2.5 mi WSW 9.2 mph - N/A Rain Heavy Rain
9:16 PM 69.8 °F - 69.8 °F 100% 29.90 in 3.0 mi WSW 5.8 mph - N/A Rain Rain
9:51 PM 68.0 °F - 68.0 °F 100% 29.89 in 10.0 mi SSW 8.1 mph - N/A   Mostly Cloudy
9:58 PM 68.9 °F - 68.7 °F 99% 29.90 in 10.0 mi SW 8.1 mph - 0.18 in   Mostly Cloudy
10:58 PM 68.0 °F - 68.0 °F 100% 29.92 in 10.0 mi SSW 8.1 mph - N/A   Mostly Cloudy
11:06 PM 68.0 °F - 68.0 °F 100% 29.91 in 10.0 mi WNW 3.5 mph - N/A   Light Drizzle
11:49 PM 68.0 °F - 68.0 °F 100% 29.89 in 10.0 mi South 9.2 mph - N/A   Scattered Clouds
11:58 PM 67.1 °F - 67.1 °F 100% 29.90 in 10.0 mi South 8.1 mph - 0.04 in   Partly Cloudy